Погода Большеречье

Погода Большеречье : погода сейчас, прогноз погоды и архив. Всё, что Вы хотите узнать о погоде Большеречье!

Хотите узнать прогноз погоды Большеречье? Тогда Вам сюда: Погода Большеречье

Поиск расширенной информации на нашем сайте:

Другие новости

Новости СМИ2

Главная страница сайта

Новости сайта

02.10.2013

Напоминаем, что на нашем новом сайте вы можете получить высокодетализированные прогнозы погоды по пунктам России, СНГ и мира (включающие важные для авиации метеовеличины, такие как направление и скорость ветра, видимость, явления погоды, количество и форма облачности, нижняя и верхняя граница облачности), а также ознакомиться с разнообразными материалами по авиационной метеорологии и подборкой полезных ссылок на эту тему.

Сайт Метеоцентр.Азия посвящён разработке технологий оптимизации авиаметеорологического обслуживания, включая проектирование и перспективное создание нескольких автоматизированных авиаметеорологических систем:
- система выпуска высокодетальных прогностических карт явлений погоды для нижнего воздушного пространства по России и ближнему зарубежью;
- система верификации прогнозов TAF (выпускаемых синоптиками официальных АМСГ РФ и ближнего зарубежья) и AUTOTAF (выпускаемых сайтом Метеоцентр.Азия) - выявление ошибок, онлайн-сопоставление с фактической погодой METAR, автоматическое внесение коррективов в прогнозы при резком отклонении фактической погоды от прогноза, подсчёт оправдываемости прогнозов по элементам и в целом;
- система обработки, анализа и отображения авиаметеорологической информации для применения провайдерами метеорологической информации.

Рекомендуем: пленка тонированная для стекол

Погода Большеречье - сегодня

Время (UTC), дата Ветер
(°,м/с) 
Видим.   Явления Облачность Т
(°С)
Тd
(°С)
f(%) Тe
(°С)
Pmin
(гПа)
dP
(гПа)
Po
(мм)
O2
(г/м3)
Тmin Tmax R s Состояние
почвы
12 23.04.17 130 (ЮВ) 20000 м    10/0 средняя 
[Ac As]
+9.4 -5 36 +9  1013.2  -3.8  753  294           
15 23.04.17 110 (В) 20000 м    10/8 600 м кучево-дожд., средняя 
[Cb calv|Ac As]
+8 -2.9 46 +9  1011.5  -1.7  752  295    +9.6       
18 23.04.17 130 (ЮВ) 10 км    10/0 средняя 
[Ac As]
+6.3 +0 64 +7  1008.8  -2.6  750  295           
21 23.04.17 170 (Ю) 10 км    3/0 средняя 
[Ac trans]
+4.4 +1.9 84 +4  1008.8  750  297           
00 24.04.17 190 (Ю) 20000 м    8/0 средняя 
[Ac lent]
+3.2 +1.4 88 +2  1009.4  0.5  750  298           
03 24.04.17 220 (ЮЗ) 20000 м    9/8 600 м кучево-дожд., средняя 
[Cb calv|Ac trans]
+5.7 +2.9 82 +4  1011.2  1.9  751  296  +3        влажная 
06 24.04.17 240 (ЮЗ) 20000 м    10/10 300 м кучево-дожд. 
[Cb calv]
+8.8 +2.6 65 +8  1014  2.9  754  294           
09 24.04.17 260 (З) 20000 м    10/10 300 м кучево-дожд. 
[Cb calv]
+9.4 +2.3 61 +8  1016.9  2.8  756  294           
12 24.04.17 280 (З) 20000 м    10/10 600 м кучево-дожд. 
[Cb calv]
+11.8 +1.3 49 +11  1018.8  757  292           
15 24.04.17 150 (ЮВ) 20000 м    3/0 верхняя 
[Ci fib]
+5.9 +1.6 74 +7  1021  759  299    +11.9       
18 24.04.17 190 (Ю) 4000 м  дымка  10/0 средняя 
[Ac As]
+6.4 +1.1 69 +6  1022.2  1.2  760  299           
21 24.04.17 190 (Ю) 10 км    9/0 средняя 
[Ac As]
+5.7 +1.7 75 +5  1023.9  1.6  761  300           
00 25.04.17 140 (ЮВ) 20000 м    10/0 средняя 
[Ac As]
+4.9 +1 76 +5  1023.6  761  301           
03 25.04.17 170 (Ю) 20000 м    10/3 600 м кучево-дожд., средняя 
[Cb calv|Ac As]
+11 +2.8 57 +10  1024.3  0.6  761  294  +2.8        влажная 
06 25.04.17 180 (Ю) 7-11{12}  20000 м    10/0 верхняя 
[Cc]
+15 +1.5 40 +14  1023.3  -0.8  761  290           
09 25.04.17 170 (Ю) 6{12}  20000 м    10/0 верхняя 
[Cc]
+18.2 +1.4 32 +18  1021.8  -1.4  760  287           
12 25.04.17 170 (Ю) 6-11{12}  20000 м    9/0 средняя, верхняя 
[Ac lent|Cs]
+18.5 +0.6 30 +19  1019.8  -2  758  286           
15 25.04.17 160 (Ю) 4{11}  20000 м    10/0 средняя, верхняя 
[Ac As|Cs]
+15.7 +1.4 38 +16  1019.4  -0.5  758  289    +19.1       
18 25.04.17 160 (Ю) 10 км    4/0 верхняя 
[Ci fib]
+14.3 +1.6 42 +14  1018.9  -0.5  757  290           
21 25.04.17 160 (Ю) 10 км    6/0 верхняя 
[Ci fib]
+13 +2 47 +13  1018.2  -0.7  757  291           
00 26.04.17 170 (Ю) 20000 м    10/3 600 м средняя 
[Cu hum|As op]
+11.4 +2.5 54 +11  1017.8  -0.5  756  292           
03 26.04.17 160 (Ю) 20000 м    10/0 средняя 
[Ac As]
+13 +2.8 50 +13  1017.3  -0.4  756  290  +10.9        влажная 
06 26.04.17 150 (ЮВ) 20000 м    9/0 средняя, верхняя 
[Ac cast|Cc]
+17.9 +1.7 34 +18  1015.6  -1.5  755  285           
09 26.04.17 160 (Ю) 20000 м    9/0 кучево-дожд., средняя, верхняя 
[Cb calv|Ac cast|Ci fib]
+22.1 +2 27 +22  1014.1  -1.4  754  281           
12 26.04.17 140 (ЮВ) 20000 м    10/3 600 м кучево-дожд., средняя 
[Cb calv|Ac As]
+22.7 +2.8 27 +23  1012.4  -1.6  753  280           
Время (UTC), дата Ветер
(°,м/с) 
Видим.   Явления Облачность Т
(°С)
Тd
(°С)
f(%) Тe
(°С)
Pmin
(гПа)
dP
(гПа)
Po
(мм)
O2
(г/м3)
Тmin Tmax R s Состояние
почвы

Для получения пояснительной информации подведите курсор к названию столбца.

ПОГОДА Большеречье - архив

Всё, что Вы хотите узнать о погоде Большеречье - удобно и подробно!

Выберите нужную дату (начиная с 1 января 2015* года) и нажмите кнопку "Найти".
Будут отображены архивные сводки погоды по пункту Большеречье, начиная с указанной даты.


Отображать данные в формате CSV (для использования в таблицах Excel)


Внимание! Наш архив погоды предназначен исключительно для личного некоммерческого использования в познавательных целях. Если Вам необходимы официальные справки о состоянии погоды (для производственных, юридических, коммерческих и т.п. целей), обращайтесь в органы Росгидромета.

*Примечание: данная дата относится к архиву по метеостанциям СССР (Россия, СНГ, Балтия).
Архив по метеостанциям Зарубежной Европы и Азии (кроме Китая) хранится 10 дней, по другим регионам земного шара (Китай, Африка, Америка, Австралия, Океания) - 1 день.

Большеречье - район местоположения метеостанции


Название, широта, долгота, высота метеостанции:
Большеречье 56.1°ш. 74.6°д. 77 м над ур. моря [Российская Федерация]

Дополнительная информация

В oтличие oт бoльшинства пoгoдных сайтoв мы публикуем пoдрoбную метеoинфoрмацию в детальнoм прoфессиoнальнoм фoрмате.

Характеристики температуры и влажнoсти вoздуха измеряются на высoте 2 м в тени вдали oт зданий и деревьев.
Скoрoсть ветра измеряется на высoте 10 м (на урoвне рoста челoвека скoрoсть ветра ниже в 1.5-2 раза). Если метеoстанция нахoдится в гoрoде или в лесу, тo скoрoсть ветра занижена на 2-4 м/с пo сравнению с oткрытым местoм. Скoрoсть ветра над акватoриями крупных рек и oзёр, а также на вершинах хoлмoв на 2-5 м/с выше, чем в oбычных услoвиях.
Атмoсфернoе давление в разных тoчках местнoсти мoжет значительнo oтличаться oт давления на метеoстанции, в зависимoсти oт услoвий рельефа (при пoдъёме на 10 м давление пoнижается примернo на 1 мм рт.ст.).